Torna al catalogo

STARLINK-34039

AttivoComunicazioniVLEO
NORAD 63946·PAYLOAD·🇺🇸 United States

Lanciato May 13, 2025 da Vandenberg Space Force Base

Loading…

Prossimi Passaggi (prossime 24 ore)

TLE

AggiornatoSource: CelesTrak SupGP

Epoca: Sep 14, 2026, 20:56 UTC

1 63946C 25098W   26257.87270833 -.00038040  00000+0 -13231-2 0  2577
2 63946  70.0000 155.6134 0003267 268.6289 198.1340 15.29603701    12

Traccia STARLINK-34039 in tempo reale con AllMySat

Download on the App Store